NSS-806

Last updated on Oct. 31, 2018, 12:08 a.m. UTC

1 25239U 98014A   18303.76603539 -.00000088  00000-0  00000+0 0  9993
2 25239   0.1970 117.6749 0003994 111.6173 276.9546  0.99079671 75717
UTC
Height (km)
Latitude
Longitude
Inclination
Orbital Period
UTC large
Height (km)
Speed (km/s)
/
Latitude / Longitude
Inclination (degrees)
Orbital Period (minutes)
Azimuth
Elevation
Range (km)
Doppler Factor
iOS Compass Heading
iOS Angle

Next 30 passes for location: Hong Kong

Rise time Rise Azimuth (degrees) Set time Set Azimuth (degrees) Duration Max altitude (degrees)

No matching passes for this satellites